[[{"header":{"parameterUnit":"m.s-1","parameterCategory":1,"la1":30.2991,"la2":30.254,"lo1":-89.0895,"lo2":-89.0444,"dy":0.0017,"dx":0.0017,"nx":28,"ny":28,"refTime":"2024-08-24T09:00:00:Z","depth":0,"parameterNumber":2,"parameterNumberName":"U-component_of_WINDS"},"data":[0,0,0,0,0,0,0,0,0,0,0,0,0,0,0,0,0,0,0,0,0,0,0,0,0,0,0,0,0,0,0,0,0,0,0,0,0,0,0,0,0,0,0,0,0,0,0,0,0,0,0,0,0,0,0,0,0,0,-4.7623,-4.7624,0,-4.7748,-4.775,-4.7751,-4.7593,-4.7587,-4.7581,-4.7576,-4.771,-4.7719,-4.7728,0,0,0,0,0,0,0,0,0,0,0,0,0,-4.7253,-4.726,-4.7623,-4.7625,-4.7626,-4.7748,-4.775,-4.7751,-4.7594,-4.7587,-4.758,-4.7573,-4.7707,-4.7718,-4.7729,0,0,0,0,0,0,0,0,0,0,0,0,0,-4.74,-4.7263,-4.7623,-4.7562,-4.7558,-4.7748,-4.775,-4.7752,-4.7596,-4.7587,-4.7578,-4.757,-4.7704,-4.7717,-4.773,-4.7988,0,0,-4.7772,-4.7777,0,0,0,0,0,0,0,0,-4.7391,-4.7413,-4.7569,-4.7567,-4.7562,-4.7646,-4.7668,-4.7831,-4.7598,-4.7582,-4.7576,-4.7566,-4.7696,-4.771,-4.7753,-4.7994,-4.8,-4.7773,-4.7781,-4.7787,-4.779,0,0,0,0,0,0,0,-4.7381,-4.7407,-4.7673,-4.7572,-4.7568,-4.753,-4.7542,-4.7698,-4.7687,-4.7582,-4.7571,-4.7588,-4.7693,-4.774,-4.7755,-4.8002,-4.7772,-4.7784,-4.7793,-4.7798,-4.8461,-4.847,0,0,0,0,0,0,-4.7378,-4.74,-4.7669,-4.7676,-4.7453,-4.7544,-4.7557,-4.7628,-4.7684,-4.7684,-4.7595,-4.758,-4.7721,-4.7739,-4.7759,-4.8065,-4.7787,-4.7799,-4.7807,-4.8452,-4.8463,-4.8473,0,0,0,0,0,0,-4.737,-4.7403,-4.7664,-4.7535,-4.7565,-4.756,-4.7641,-4.7635,-4.7682,-4.7694,-4.7691,-4.7645,-4.7715,-4.774,-4.7932,-4.8067,-4.7805,-4.7818,-4.844,-4.8455,-4.8468,-4.8679,0,0,0,0,0,0,-4.736,-4.7401,-4.7498,-4.7538,-4.7573,-4.7834,-4.7649,-4.7644,-4.7705,-4.7686,-4.774,-4.7741,-4.771,-4.7912,-4.7945,-4.8081,-4.7828,-4.8428,-4.8447,-4.8464,-4.866,-4.8698,-4.8731,0,0,0,0,0,-4.7348,-4.7553,-4.7504,-4.7537,-4.7693,-4.7842,-4.7861,-4.782,-4.7717,-4.7815,-4.7822,-4.7739,-4.8047,-4.7933,-4.7969,-4.8111,-4.842,-4.8442,-4.8462,-4.8643,-4.8691,-4.8731,0,0,0,0,0,0,-4.7531,-4.7558,-4.7503,-4.7727,-4.7783,-4.7814,-4.7937,-4.7871,-4.796,-4.7939,-4.7885,-4.7899,-4.8104,-4.8126,-4.7999,-4.8363,-4.8216,-4.8246,-4.8342,-4.8387,-4.8422,-4.8414,-4.7839,0,0,0,0,0,-4.7598,-4.7714,-4.7731,-4.7928,-4.7958,-4.7943,-4.8006,-4.7969,-4.8026,-4.805,-4.8071,-4.8131,-4.824,-4.8314,-4.8416,-4.8661,-4.8672,-4.8776,-4.8812,-4.8842,-4.8869,-4.9002,-4.9049,-4.8544,-4.8544,-4.8543,0,0,-4.7737,-4.7765,-4.7842,-4.7965,-4.8004,-4.8128,-4.7964,-4.8102,-4.8194,-4.8071,-4.8253,-4.8271,-4.8334,-4.8554,-4.8652,-4.8579,-4.901,-4.8869,-4.8892,-4.8904,-4.9029,-4.9076,-4.9119,-4.8558,-4.8556,-4.8553,0,0,-4.8053,-4.8086,-4.8253,-4.8295,-4.8356,-4.8344,-4.8384,-4.8426,-4.8433,-4.8614,-4.8524,-4.8634,-4.8824,-4.8873,-4.8923,-4.9257,-4.9186,-4.9292,-4.9481,-4.9611,-4.9651,-4.9686,-4.9808,-4.9852,-4.9318,-4.9319,-4.9319,0,-4.8219,-4.84,-4.8349,-4.8493,-4.8551,-4.8442,-4.8613,-4.8656,-4.8748,-4.8791,-4.8707,-4.8944,-4.8978,-4.9209,-4.9291,-4.9334,-4.938,-4.9287,-4.9649,-4.9684,-4.9716,-4.9831,-4.9877,-4.9332,-4.933,-4.9329,-4.9328,0,-4.8602,-4.8729,-4.8858,-4.8947,-4.9019,-4.9176,-4.915,-4.9229,-4.9185,-4.9183,-4.937,-4.9408,-4.9516,-4.9567,-4.9527,-4.9793,-4.9746,-4.9657,-4.9508,-4.9777,-4.9885,-4.9929,-4.935,-4.9345,-4.9341,-4.9338,0,0,-4.9041,-4.9098,-4.9146,-4.9186,-4.9244,-4.9342,-4.9494,-4.9598,-4.9668,-4.9734,-4.9862,-5.0025,-4.9943,-4.9999,-4.9964,-5.0078,-5.0343,-4.9974,-4.9975,-5.0043,-5.0641,-5.071,-5.0761,-5.0294,-5.0302,-5.0309,-5.0636,0,-4.9359,-4.9621,-4.9579,-4.9833,-4.9951,-4.9849,-4.9982,-5.0034,-5.0036,-5.0137,-5.0139,-5.0257,-5.0138,-5.0171,-5.0279,-5.0288,-5.0463,-5.0263,-5.0416,-5.0422,-5.0406,-5.0817,-5.089,-5.1198,-5.0678,-5.0685,-5.069,0,-4.9766,-4.9846,-5.0112,-5.0151,-5.0199,-5.032,-5.0411,-5.0509,-5.0565,-5.0559,-5.0622,-5.0565,-5.072,-5.0567,-5.078,-5.0645,-5.0705,-5.0718,-5.0729,-5.0744,-5.0574,-5.0846,-5.1294,-5.1342,-5.0755,-5.075,-5.0745,0,-5.0062,-5.0236,-5.0417,-5.0454,-5.0504,-5.0592,-5.0617,-5.0664,-5.0729,-5.081,-5.0852,-5.0951,-5.1005,-5.1084,-5.1056,-5.0947,-5.1276,-5.112,-5.1277,-5.1279,-5.1353,-5.135,-5.1821,-5.1388,-5.1387,-5.1386,-5.1386,0,-5.0423,-5.0591,-5.0551,-5.0663,-5.0848,-5.0798,-5.0983,-5.0996,-5.1039,-5.1154,-5.1072,-5.1181,-5.1136,-5.1244,-5.1223,-5.1404,-5.1429,-5.143,-5.1423,-5.1439,-5.1439,-5.1479,-5.1458,-5.1399,-5.1396,-5.1394,-5.1391,0,-5.0787,-5.0766,-5.0958,-5.0989,-5.1001,-5.1136,-5.1164,-5.127,-5.1264,-5.141,-5.1442,-5.1435,-5.1557,-5.1536,-5.1672,-5.1657,-5.1885,-5.185,-5.1866,-5.1858,-5.2018,-5.2004,-5.2533,-5.2601,-5.2122,-5.2127,-5.2131,0,-5.102,-5.1146,-5.119,-5.126,-5.1291,-5.1405,-5.147,-5.1426,-5.1498,-5.1572,-5.167,-5.1784,-5.1873,-5.2073,-5.2082,-5.2186,-5.2155,-5.2333,-5.217,-5.2182,-5.216,-5.2154,-5.2168,-5.2366,-5.2372,-5.2376,-5.238,0,-5.1437,-5.142,-5.1517,-5.1611,-5.1691,-5.1763,-5.1827,-5.189,-5.1851,-5.1936,-5.2059,-5.2128,-5.2266,-5.2381,-5.2478,-5.2506,-5.2439,-5.243,-5.2472,-5.2492,-5.2496,-5.2498,-5.1956,-5.2419,-5.2415,-5.2412,-5.241,-5.2408,-5.1744,-5.1852,-5.19,-5.201,-5.2053,-5.2115,-5.2217,-5.2223,-5.2324,-5.2432,-5.2399,-5.254,-5.2593,-5.2716,-5.2755,-5.2865,-5.2799,-5.286,-5.2876,-5.2893,-5.2913,-5.2476,-5.2882,-5.2881,-5.288,-5.2879,-5.2878,0,-5.2159,-5.2184,-5.2286,-5.2378,-5.2466,-5.239,-5.2458,-5.2537,-5.2661,-5.2715,-5.2804,-5.2946,-5.3058,-5.3074,-5.318,-5.3266,-5.3238,-5.3296,-5.329,-5.3298,-5.2964,-5.2918,-5.3317,-5.3317,-5.3317,-5.3316,-5.3316,-5.3316,-5.2385,-5.2564,-5.2553,-5.2753,-5.2777,-5.2913,-5.2958,-5.3015,-5.3059,-5.322,-5.3312,-5.3321,-5.3361,-5.3469,-5.3569,-5.3571,-5.3615,-5.3686,-5.3677,-5.3365,-5.3322,-5.328,-5.3236,-5.3695,-5.3696,-5.4002,-5.4004,-5.4007]},{"header":{"parameterUnit":"m.s-1","parameterCategory":1,"la1":30.2991,"la2":30.254,"lo1":-89.0895,"lo2":-89.0444,"dy":0.0017,"dx":0.0017,"nx":28,"ny":28,"refTime":"2024-08-24T09:00:00:Z","depth":0,"parameterNumber":3,"parameterNumberName":"V-component_of_WINDS"},"data":[0,0,0,0,0,0,0,0,0,0,0,0,0,0,0,0,0,0,0,0,0,0,0,0,0,0,0,0,0,0,0,0,0,0,0,0,0,0,0,0,0,0,0,0,0,0,0,0,0,0,0,0,0,0,0,0,0,0,-2.3976,-2.3976,0,-2.3961,-2.3961,-2.396,-2.3938,-2.3938,-2.3938,-2.3937,-2.392,-2.392,-2.392,0,0,0,0,0,0,0,0,0,0,0,0,0,-2.3984,-2.3984,-2.3976,-2.3976,-2.3976,-2.3961,-2.3961,-2.396,-2.3938,-2.3938,-2.3938,-2.3937,-2.392,-2.392,-2.392,0,0,0,0,0,0,0,0,0,0,0,0,0,-2.3976,-2.3984,-2.3976,-2.3963,-2.3962,-2.3961,-2.3961,-2.396,-2.3939,-2.3938,-2.3937,-2.3937,-2.392,-2.392,-2.392,-2.393,0,0,-2.3919,-2.3919,0,0,0,0,0,0,0,0,-2.3976,-2.3976,-2.3965,-2.3964,-2.3963,-2.3951,-2.3957,-2.395,-2.3939,-2.3947,-2.3937,-2.3937,-2.3931,-2.393,-2.3928,-2.3929,-2.3929,-2.3919,-2.3919,-2.3919,-2.3919,0,0,0,0,0,0,0,-2.3977,-2.3976,-2.397,-2.3965,-2.3963,-2.3957,-2.3955,-2.3956,-2.3942,-2.3947,-2.3945,-2.3943,-2.393,-2.3928,-2.3927,-2.3928,-2.3919,-2.3919,-2.3919,-2.3919,-2.3935,-2.3935,0,0,0,0,0,0,-2.398,-2.3977,-2.3971,-2.397,-2.3968,-2.3957,-2.3955,-2.3955,-2.3942,-2.394,-2.3944,-2.3942,-2.3929,-2.3928,-2.3927,-2.3936,-2.3919,-2.3919,-2.3919,-2.3934,-2.3935,-2.3935,0,0,0,0,0,0,-2.398,-2.398,-2.3971,-2.3973,-2.3971,-2.3958,-2.3958,-2.3955,-2.3953,-2.394,-2.3938,-2.3945,-2.3928,-2.3927,-2.3929,-2.3935,-2.3919,-2.3919,-2.3933,-2.3934,-2.3935,-2.3956,0,0,0,0,0,0,-2.398,-2.398,-2.3984,-2.3973,-2.3971,-2.3975,-2.3958,-2.3955,-2.3953,-2.3951,-2.394,-2.3938,-2.3928,-2.3929,-2.3929,-2.3935,-2.3919,-2.3933,-2.3934,-2.3935,-2.3955,-2.3957,-2.396,0,0,0,0,0,-2.3981,-2.3991,-2.3985,-2.3984,-2.3977,-2.3975,-2.3974,-2.3962,-2.3954,-2.3958,-2.3949,-2.3938,-2.3935,-2.393,-2.3929,-2.3935,-2.3932,-2.3933,-2.3935,-2.3954,-2.3957,-2.396,0,0,0,0,0,0,-2.4004,-2.399,-2.3982,-2.3989,-2.3984,-2.3971,-2.3976,-2.3966,-2.3963,-2.3961,-2.3946,-2.3944,-2.3947,-2.3941,-2.3936,-2.3943,-2.3932,-2.3933,-2.3946,-2.395,-2.3952,-2.3953,-2.3919,0,0,0,0,0,-2.401,-2.401,-2.3997,-2.4005,-2.4002,-2.399,-2.3989,-2.398,-2.3973,-2.397,-2.3962,-2.3955,-2.3952,-2.3951,-2.3947,-2.3954,-2.395,-2.3957,-2.396,-2.3962,-2.3963,-2.3964,-2.3966,-2.3939,-2.3939,-2.3939,0,0,-2.4022,-2.4014,-2.4015,-2.4009,-2.4004,-2.4003,-2.3988,-2.3989,-2.3988,-2.397,-2.3971,-2.3965,-2.3956,-2.396,-2.3961,-2.3955,-2.3969,-2.3963,-2.3965,-2.3965,-2.3965,-2.3968,-2.397,-2.394,-2.394,-2.3939,0,0,-2.4044,-2.4039,-2.4043,-2.4038,-2.4029,-2.402,-2.4021,-2.401,-2.4005,-2.4006,-2.3992,-2.399,-2.3986,-2.398,-2.3976,-2.3993,-2.3983,-2.3993,-2.4006,-2.4007,-2.4009,-2.4011,-2.4015,-2.4017,-2.3994,-2.3994,-2.3994,0,-2.406,-2.4059,-2.4047,-2.4048,-2.4045,-2.4029,-2.4032,-2.4027,-2.4018,-2.4016,-2.401,-2.4002,-2.3996,-2.3997,-2.4001,-2.3999,-2.3998,-2.3994,-2.401,-2.4011,-2.4013,-2.4017,-2.4019,-2.3995,-2.3995,-2.3995,-2.3995,0,-2.4078,-2.4078,-2.4083,-2.4074,-2.4071,-2.4074,-2.4061,-2.4059,-2.405,-2.4042,-2.4041,-2.4032,-2.4026,-2.4026,-2.4017,-2.4025,-2.4021,-2.4013,-2.4001,-2.4017,-2.402,-2.4022,-2.3997,-2.3996,-2.3996,-2.3996,0,0,-2.4115,-2.4098,-2.41,-2.4095,-2.4083,-2.4082,-2.4083,-2.4077,-2.4075,-2.4069,-2.4068,-2.4064,-2.4056,-2.4051,-2.4042,-2.4043,-2.4054,-2.4033,-2.4033,-2.4037,-2.406,-2.4066,-2.4068,-2.4047,-2.4048,-2.4048,-2.406,0,-2.4134,-2.4135,-2.4122,-2.4126,-2.4125,-2.4108,-2.4109,-2.4101,-2.4093,-2.4089,-2.408,-2.4077,-2.4066,-2.4063,-2.4063,-2.4053,-2.4059,-2.4052,-2.4045,-2.4045,-2.4047,-2.407,-2.4077,-2.4089,-2.4062,-2.4062,-2.4062,0,-2.4156,-2.415,-2.4154,-2.414,-2.4139,-2.414,-2.4132,-2.413,-2.412,-2.4114,-2.4108,-2.4097,-2.4095,-2.4084,-2.4081,-2.4077,-2.4073,-2.4067,-2.4067,-2.4066,-2.4054,-2.4068,-2.4093,-2.4094,-2.4064,-2.4064,-2.4064,0,-2.418,-2.4173,-2.4174,-2.4171,-2.4155,-2.4156,-2.4149,-2.4139,-2.4136,-2.4129,-2.4126,-2.4119,-2.4114,-2.4109,-2.4095,-2.4089,-2.4092,-2.4081,-2.4086,-2.4086,-2.4087,-2.4087,-2.4111,-2.4086,-2.4086,-2.4086,-2.4086,0,-2.4201,-2.4204,-2.4185,-2.4185,-2.4187,-2.4172,-2.4174,-2.4166,-2.4156,-2.4154,-2.4139,-2.4137,-2.412,-2.4115,-2.4105,-2.4103,-2.4101,-2.4095,-2.4092,-2.4096,-2.4096,-2.4093,-2.4091,-2.4087,-2.4087,-2.4087,-2.4087,0,-2.4229,-2.4216,-2.4216,-2.4201,-2.4197,-2.4199,-2.4186,-2.4185,-2.4175,-2.4172,-2.417,-2.4155,-2.4148,-2.4134,-2.4124,-2.4117,-2.4117,-2.4112,-2.412,-2.4118,-2.4123,-2.4123,-2.4145,-2.4146,-2.4122,-2.4122,-2.4123,0,-2.4243,-2.4244,-2.4229,-2.4227,-2.4221,-2.4217,-2.4213,-2.4198,-2.4194,-2.4182,-2.4182,-2.4174,-2.4168,-2.4158,-2.4145,-2.4137,-2.4131,-2.4139,-2.413,-2.4133,-2.413,-2.4129,-2.4129,-2.4141,-2.4142,-2.4142,-2.4142,0,-2.4269,-2.4262,-2.4257,-2.4249,-2.4245,-2.4238,-2.423,-2.4228,-2.4211,-2.4207,-2.4201,-2.4195,-2.4185,-2.4177,-2.4166,-2.4158,-2.4147,-2.4145,-2.4146,-2.4149,-2.4153,-2.415,-2.4125,-2.4145,-2.4145,-2.4144,-2.4144,-2.4144,-2.4289,-2.4289,-2.4278,-2.4272,-2.4264,-2.4257,-2.4255,-2.4244,-2.4239,-2.4229,-2.422,-2.4214,-2.4202,-2.4186,-2.4179,-2.4173,-2.4168,-2.4169,-2.4169,-2.4169,-2.417,-2.4155,-2.4171,-2.4171,-2.4171,-2.4171,-2.4171,0,-2.4313,-2.4304,-2.4299,-2.4289,-2.4284,-2.4273,-2.4264,-2.426,-2.4255,-2.4245,-2.4238,-2.423,-2.4221,-2.4207,-2.4198,-2.4196,-2.419,-2.4193,-2.4193,-2.4191,-2.4176,-2.4176,-2.4198,-2.4198,-2.4198,-2.4198,-2.4198,-2.4198,-2.4324,-2.4323,-2.4314,-2.4308,-2.43,-2.4294,-2.4289,-2.4281,-2.4273,-2.4264,-2.4257,-2.4248,-2.4236,-2.4225,-2.4217,-2.4213,-2.4209,-2.4214,-2.4209,-2.4195,-2.4192,-2.419,-2.419,-2.4214,-2.4214,-2.4224,-2.4224,-2.4224]}]]